Regional Weather Roundup
Issued by NWS

Home | Current Version | Previous Version | Graphics & Text | Print | Product List | Glossary On
Versions: 1 2 3 4 5 6 7 8 9 10 11 12 13 14 15 16 17 18 19 20 21 22 23 24 25 26 27 28
000
ASUS45 KPSR 181210
RWRAZ

ARIZONA HOURLY REGIONAL WEATHER ROUNDUP
NATIONAL WEATHER SERVICE PHOENIX AZ
500 AM MST FRI AUG 18 2017

NOTE: FAIR INDICATES FEW OR NO CLOUDS BELOW 12,000 FEET WITH NO
SIGNIFICANT WEATHER AND/OR OBSTRUCTIONS TO VISIBILITY.

AZZ001>003-036-181300-
NORTHWEST ARIZONA

CITY           SKY/WX    TMP DP  RH WIND       PRES   REMARKS
BULLHEAD CITY  CLEAR     81  36  19 CALM      29.87R
KINGMAN        CLEAR     64  35  34 S5        30.08R
6HR MIN TEMP:  63; 6HR MAX TEMP:  75;

$$

AZZ004>008-015-016-018-181300-
NORTH CENTRAL ARIZONA

CITY           SKY/WX    TMP DP  RH WIND       PRES   REMARKS
GRAND CANYON   CLEAR     43  34  70 CALM      30.32R
6HR MIN TEMP:  43; 6HR MAX TEMP:  51;

WILLIAMS       CLEAR     46  39  76 S8        30.32S
PRESCOTT       CLEAR     57  38  48 S3        30.21R
6HR MIN TEMP:  56; 6HR MAX TEMP:  68;

FLAGSTAFF      CLEAR     48  36  63 CALM      30.34R
6HR MIN TEMP:  46; 6HR MAX TEMP:  51;

PAYSON           N/A     59  27  29 CALM      30.22R
PAGE           CLEAR     70  40  33 CALM      30.11R
6HR MIN TEMP:  70; 6HR MAX TEMP:  81;

$$

AZZ009>014-017-181300-
NORTHEAST ARIZONA

CITY           SKY/WX    TMP DP  RH WIND       PRES   REMARKS
WINSLOW        CLEAR     53  34  48 CALM      30.20R
6HR MIN TEMP:  53; 6HR MAX TEMP:  71;

SAINT JOHNS    CLEAR     57  41  55 S6        30.25R
6HR MIN TEMP:  57; 6HR MAX TEMP:  70;

WINDOW ROCK    MOCLDY    45  31  58 S3        30.31R
6HR MIN TEMP:  45; 6HR MAX TEMP:  54;

SHOW LOW       CLEAR     54  34  47 CALM      30.31S
$$

AZZ540-542>544-546-548-181300-
GREATER PHOENIX AREA

CITY           SKY/WX    TMP DP  RH WIND       PRES   REMARKS
PHOENIX        CLEAR     81  37  20 CALM      29.90R
6HR MIN TEMP:  81; 6HR MAX TEMP:  90;

BUCKEYE        CLEAR     72  39  30 N5        29.91R
LUKE AFB       CLEAR     74  51  43 N6        29.90R
6HR MIN TEMP:  73; 6HR MAX TEMP:  83;

DEER VALLEY    CLEAR     74  32  21 SE3       29.92S
6HR MIN TEMP:  74; 6HR MAX TEMP:  86;

SCOTTSDALE     CLEAR     76  41  28 CALM      29.94R
6HR MIN TEMP:  75; 6HR MAX TEMP:  87;

$$

AZZ539-553-181300-
SOUTHWEST MARICOPA COUNTY AND PINAL COUNTY

CITY           SKY/WX    TMP DP  RH WIND       PRES   REMARKS
CASA GRANDE    NOT AVBL
GILA BEND      FAIR      77  47  33 E6        29.88R
6HR MIN TEMP:  77; 6HR MAX TEMP:  87;

$$

AZZ503-504-507>509-181300-
SOUTHEAST ARIZONA

CITY           SKY/WX    TMP DP  RH WIND       PRES   REMARKS
TUCSON         NOT AVBL
DAVIS-MONTHAN  CLEAR     67  45  45 SE6       30.03R
6HR MIN TEMP:  67; 6HR MAX TEMP:  77;

NOGALES        CLEAR     57  48  72 CALM      30.12R
6HR MIN TEMP:  57; 6HR MAX TEMP:  67;

SIERRA VISTA   CLEAR     69  35  28 W9        30.17R
6HR MIN TEMP:  64; 6HR MAX TEMP:  75;

DOUGLAS        PTCLDY    63  48  58 CALM      30.13R
6HR MIN TEMP:  60; 6HR MAX TEMP:  70;

SAFFORD        CLEAR     63  43  48 CALM      30.05R
6HR MIN TEMP:  62; 6HR MAX TEMP:  77; 6HR PCP: TRACE;

$$

AZZ532-181300-
SOUTHWEST ARIZONA

CITY           SKY/WX    TMP DP  RH WIND       PRES   REMARKS
YUMA           CLEAR     81  62  52 S3        29.83R
6HR MIN TEMP:  79; 6HR MAX TEMP:  90;

$$

CAZ041-043-047-048-061-525>527-560>570-181300-
SOUTHERN CALIFORNIA

CITY           SKY/WX    TMP DP  RH WIND       PRES   REMARKS
DOWNTOWN L.A.  MOCLDY    65  62  90 CALM      29.97S
6HR MIN TEMP:  65; 6HR MAX TEMP:  67;

L.A. AIRPORT   MOCLDY    66  63  90 VRB3      29.97S
6HR MIN TEMP:  65; 6HR MAX TEMP:  67;

SAN DIEGO      MOCLDY    69  62  78 N3        29.99S
6HR MIN TEMP:  68; 6HR MAX TEMP:  69;

BURBANK        CLEAR     63  58  83 CALM      29.97S
6HR MIN TEMP:  63; 6HR MAX TEMP:  69;

ONTARIO        CLEAR     64  59  83 CALM      29.97F
6HR MIN TEMP:  64; 6HR MAX TEMP:  71;

RIVERSIDE      CLEAR     65  61  87 W3        29.98S
6HR MIN TEMP:  64; 6HR MAX TEMP:  71;

PALM SPRINGS   CLEAR     79  54  41 CALM      29.87R
6HR MIN TEMP:  78; 6HR MAX TEMP:  89;

EL CENTRO NAS  CLEAR     77  52  41 SE7       29.84R
6HR MIN TEMP:  77; 6HR MAX TEMP:  90;

IMPERIAL       CLEAR     80  55  42 SE5       29.82R
6HR MIN TEMP:  80; 6HR MAX TEMP:  87;

BLYTHE         CLEAR     80  48  32 CALM      29.84R
6HR MIN TEMP:  80; 6HR MAX TEMP:  93;

NEEDLES        CLEAR     83  36  18 NW6       29.88R
6HR MIN TEMP:  83; 6HR MAX TEMP:  95;

$$

NVZ020-UTZ003-181300-
SOUTHERN NEVADA-UTAH

CITY           SKY/WX    TMP DP  RH WIND       PRES   REMARKS
LAS VEGAS      CLEAR     82  40  22 CALM      29.96R
6HR MIN TEMP:  82; 6HR MAX TEMP:  90;

SALT LAKE CITY CLEAR     66  46  48 SE6       30.12R
6HR MIN TEMP:  65; 6HR MAX TEMP:  75;

$$

NMZ009-TXZ055-181300-
NEW MEXICO-WEST TEXAS

CITY           SKY/WX    TMP DP  RH WIND       PRES   REMARKS
ALBUQUERQUE    PTCLDY    71  39  31 CALM      30.20R
6HR MIN TEMP:  69; 6HR MAX TEMP:  78;

EL PASO        PTCLDY    74  61  63 CALM      30.10R
6HR MIN TEMP:  73; 6HR MAX TEMP:  81;

$$


........................KEY........................
SKY/WX - SKY CONDITION/WEATHER
TMP    - TEMPERATURE IN FAHRENHEIT
DP     - DEW POINT IN FAHRENHEIT
RH     - RELATIVE HUMIDITY IN PERCENT
WIND   - DIRECTION AND SPEED IN MILES PER HOUR (MPH)
VRB    - VARIABLE WIND DIRECTION
PRES   - MEAN SEA LEVEL PRESSURE IN INCHES OF MERCURY
         F - FALLING PRESSURE   R - RISING PRESSURE
         S - STEADY PRESSURE
VSB    - VISIBILITY IN MILES
HX     - HEAT INDEX IN FAHRENHEIT
WCI    - WIND CHILL INDEX IN FAHRENHEIT
TC     - TEMPERATURE IN CELSIUS WHICH IS ALSO KNOWN AS
         TEMPERATURE IN CENTIGRADE
AFB    - AIR FORCE BASE
         LUKE AFB IS LUKE AIR FORCE BASE
         DAVIS-MONTHAN IS DAVIS-MONTHAN AIR FORCE BASE
NAS    - NAVAL AIR STATION
         EL CENTRO NAS IS EL CENTRO NAVAL AIR STATION
N/A    - NOT AVAILABLE





USA.gov is the U.S. government's official web portal to all federal, state and local government web resources and services.